Regional Weather Roundup
Issued by NWS Cleveland, OH

Home | Current Version | Previous Version | Graphics & Text | Print | Product List | Glossary On
Versions: 1 2 3 4 5 6 7 8 9 10 11 12 13 14 15 16 17 18 19 20 21 22 23 24 25 26 27 28 29 30 31 32 33 34 35 36 37 38 39 40 41 42 43 44 45 46 47 48 49 50
141
ASUS41 KCLE 050302
RWRCLE
OHIO REGIONAL WEATHER ROUNDUP
NATIONAL WEATHER SERVICE CLEVELAND, OH
1000 PM EST SUN DEC 04 2016

NOTE: "FAIR" INDICATES FEW OR NO CLOUDS BELOW 12,000 FEET WITH NO
SIGNIFICANT WEATHER AND/OR OBSTRUCTIONS TO VISIBILITY.

OHZ001>008-015>018-024>027-034-035-043-044-050400-
   NORTHWEST OHIO

CITY           SKY/WX    TMP DP  RH WIND       PRES   REMARKS
DEFIANCE       CLOUDY    34  31  88 S5        29.83F FOG     WCI  30
FINDLAY        LGT RAIN  34  31  88 S12       29.82F FOG     WCI  25
TOLEDO EXPRESS LGT SNOW  32  32 100 SE3       29.82F FOG
TOLEDO EXEC    LGT SNOW  33  33 100 S3        29.84F FOG
LIMA           LGT RAIN  34  34 100 S10       29.82F FOG     WCI  26
$$

OHZ009>014-019>023-028>033-038-089-050400-
   NORTHEAST OHIO

CITY           SKY/WX    TMP DP  RH WIND       PRES   REMARKS
CLE-HOPKINS    FLURRIES  36  32  85 SE10      29.83F
CLE-LAKEFRONT  LGT RAIN  36  33  89 SE9       29.81F
CUY CO. ARPT   LGT SNOW  36  36 100 S14       29.83F
LORAIN-ELYRIA  LGT SNOW  33  30  88 S9        29.82F FOG     WCI  25
ASHTABULA      FLURRIES  37  30  75 S13       29.87S
AKRON-CANTON   LGT SNOW  35  31  85 SE9       29.84F WCI  28
WOOSTER        LGT RAIN  33  31  92 S7        29.83F WCI  27
MANSFIELD      CLOUDY    34  33  96 S16       29.81F WCI  24
YOUNGSTOWN     LGT SNOW  35  30  82 SE7       29.87R WCI  29
$$

OHZ042-051>053-060>062-070>072-077>081-050400-
  SOUTHWEST OHIO

CITY           SKY/WX    TMP DP  RH WIND       PRES   REMARKS
CINC-COVINGTON CLOUDY    44  42  93 W13G21    29.88R
CINC-LUNKEN    CLOUDY    45  44  97 SW9       29.90R
HAMILTON       CLOUDY    41  40  96 SW6       29.89R FOG
DAYTON         CLOUDY    38  37  97 S10       29.85S FOG
WRIGHT-PAT AFB DRIZZLE   38  38 100 S6        29.85S FOG
DAYTON GENERAL CLOUDY    39  37  92 SW7       29.86R FOG
WILMINGTON     CLOUDY    40  40 100 SW10      29.85F
$$

OHZ036-037-039>041-045>050-054>059-063>069-073>076-082>088-050400-
  CENTRAL AND SOUTHEAST OHIO

CITY           SKY/WX    TMP DP  RH WIND       PRES   REMARKS
COLUMBUS       CLOUDY    37  37 100 S6        29.85F FOG
OSU AIRPORT    CLOUDY    37  37 100 S8        29.84F
BOLTON FIELD   NOT AVBL
RICKENBACK AFB CLOUDY    37  37 100 S3        29.86F FOG
NEWARK         LGT RAIN  37  35  92 S5        29.85F FOG
MARION         CLOUDY    34  32  92 S13       29.84S FOG     WCI  25
LANCASTER      CLOUDY    37  37 100 S3        29.86F FOG
ZANESVILLE     LGT RAIN  37  35  92 SE5       29.86F FOG
NEW PHILLY     NOT AVBL
$$




USA.gov is the U.S. government's official web portal to all federal, state and local government web resources and services.